Home > Weather > Saint-Denis > Past weeks

Flag for France Past Weather in Saint-Denis, Île-de-France, France — Yesterday and Last 2 Weeks

Now
72 °F

Sunny.


Feels Like: 74 °F
Forecast: 71 / 96 °F
Wind: 6 mph from North

Location: Paris Le Bourget Airport

Current Time: Aug 26, 2016 at 8:56:27 AM

Latest Report: Aug 26, 2016 at 8:30 AM


Visibility: 10 mi

Pressure: 30.01 "Hg

Humidity: 73%

Dew Point: 63 °F

Location of Saint-DenisLocation

Past Weather in Saint-Denis — Graph

°F

Saint-Denis Temperature Yesterday

Maximum temperature yesterday: 99 °F (at 5:00 PM)
Minimum temperature yesterday: 66 °F (at 5:30 AM)
Average temperature yesterday: 83 °F

High & Low Weather Summary for the Past Weeks

 TemperatureHumidityPressure
High99 °F (Aug 25, 5:00 PM)94% (Aug 19, 1:30 AM)30.33 "Hg (Aug 19, 1:30 AM)
Low48 °F (Aug 11, 7:00 AM)25% (Aug 24, 5:30 PM)29.80 "Hg (Aug 18, 3:00 PM)
Average71 °F61%30.11 "Hg
* Reported Aug 11 7:00 AM — Aug 26 7:30 AM, Saint-Denis, Weather by CustomWeather, © 2016

Note: Actual official high and low records may vary slightly from our data, if they occured in-between our weather recording intervals... More about our weather records

Advertising

Saint-Denis Weather History for the Previous 24 Hours

Scroll right to see more
 ConditionsComfort  
Time TempWeatherWind HumidityBarometerVisibility
7:30 AM
Fri, Aug 26
68 °FClear.2 mph83%29.98 "Hg10 mi
7:00 AM68 °FClear.3 mph83%29.98 "Hg10 mi
6:30 AM68 °FClear.2 mph78%29.98 "Hg10 mi
6:00 AM70 °FClear.3 mph78%29.98 "Hg10 mi
5:30 AM70 °FClear.5 mph73%29.95 "Hg10 mi
5:00 AM70 °FClear.5 mph78%29.95 "Hg10 mi
4:30 AM72 °FClear.3 mph69%29.95 "Hg10 mi
4:00 AM72 °FClear.3 mph73%29.95 "Hg10 mi
3:30 AM73 °FClear.3 mph69%29.95 "Hg10 mi
3:00 AM75 °FClear.2 mph65%29.92 "Hg10 mi
2:30 AM75 °FClear.2 mph69%29.92 "Hg10 mi
2:00 AM75 °FClear.No wind65%29.92 "Hg10 mi
1:30 AM77 °FClear.1 mph61%29.92 "Hg10 mi
1:00 AM77 °FClear.No wind61%29.92 "Hg10 mi
12:30 AM79 °FClear.No wind58%29.92 "Hg10 mi
12:00 AM79 °FClear.1 mph58%29.92 "Hg10 mi
11:30 PM
Thu, Aug 25
81 °FClear.No wind54%29.92 "Hg10 mi
11:00 PM84 °FClear.2 mph45%29.92 "Hg10 mi
10:30 PM86 °FPassing clouds.5 mph46%29.92 "HgN/A
10:00 PM88 °FClear.3 mph40%29.92 "Hg10 mi
9:30 PM88 °FSunny.2 mph40%29.92 "Hg10 mi
9:00 PM90 °FSunny.No wind36%29.89 "Hg10 mi
8:30 PM91 °FSunny.5 mph34%29.89 "Hg10 mi
8:00 PM95 °FPassing clouds.3 mph32%29.89 "HgN/A
7:30 PM95 °FPassing clouds.6 mph32%29.89 "HgN/A
7:00 PM97 °FPassing clouds.5 mph30%29.89 "HgN/A
6:30 PM97 °FPassing clouds.6 mph28%29.89 "HgN/A
6:00 PM97 °FPassing clouds.10 mph28%29.89 "HgN/A
5:30 PM97 °FPassing clouds.7 mph28%29.92 "HgN/A
5:00 PM99 °FPassing clouds.5 mph27%29.92 "HgN/A
4:30 PM97 °FPassing clouds.6 mph28%29.92 "HgN/A
4:00 PM97 °FPassing clouds.7 mph28%29.92 "HgN/A
3:30 PM97 °FPassing clouds.5 mph30%29.92 "HgN/A
3:00 PM95 °FPassing clouds.8 mph30%29.95 "HgN/A
2:30 PM95 °FSunny.9 mph32%29.95 "Hg10 mi
2:00 PM95 °FPassing clouds.8 mph32%29.95 "HgN/A
1:30 PM93 °FPassing clouds.7 mph34%29.95 "HgN/A
1:00 PM91 °FPassing clouds.6 mph38%29.95 "HgN/A
12:30 PM90 °FPassing clouds.6 mph41%29.95 "HgN/A
12:00 PM88 °FPassing clouds.6 mph43%29.98 "HgN/A
11:30 AM86 °FPassing clouds.5 mph46%29.98 "HgN/A
11:00 AM84 °FPassing clouds.5 mph48%29.98 "HgN/A
10:30 AM82 °FPassing clouds.5 mph48%29.98 "HgN/A
10:00 AM81 °FPassing clouds.5 mph51%29.98 "HgN/A
9:30 AM79 °FPassing clouds.3 mph58%29.98 "HgN/A
9:00 AM75 °FSunny.2 mph61%29.98 "Hg10 mi
8:30 AM73 °FSunny.3 mph65%29.98 "Hg10 mi
8:00 AM68 °FSunny.5 mph78%29.98 "Hg10 mi
Weather by CustomWeather, © 2016

See weather overviewHow to use our weather pages